Погода в Колыбельском

Россия / Липецкая область     53°06′18″N   39°56′03″E
темп.,
°C
ветер,
м/с
пор.,
м/с
влажн.,
%
обл.,
%
осадки,
мм/ч
давл.,
гПа
погр.,
м
15 апреля, чт
чт1500:00+12юв285729 0.0 1016154
03:00+11вюв256494 0.0 101679
06:00+10вюв2670100 0.0 101598
09:00+15юв365187 0.0 1015392
12:00+19юв4638100 0.0 10141108
15:00+20юв4735100 0.0 10131713
18:00+15зюз3565100 0.0 1014307
21:00+12ю41074100 0.3 1016537
16 апреля, пт
пт1600:00+11всв2281100 0.4 101521
03:00+10в2388100 0.4 101652
06:00+9в2391100 0.0 101764
09:00+14вюв3570100 0.1 1017440
12:00+17вюв3555100 0.0 10171065
15:00+18вюв4745100 0.0 10171828
18:00+12ю3786100 2.6 1018270
21:00+11св238143 3.3 101859
17 апреля, сб
сб1700:00+11св3685100 0.2 1018177
03:00+9всв389098 0.3 1018173
06:00+10всв3889100 0.0 1017260
09:00+12в477495 0.4 1018677
12:00+16в51058100 0.2 10171594
15:00+11ююв51287100 5.8 1017959
18:00+10ю239299 7.6 1018335
21:00+9всв2695100 8.3 1019337
18 апреля, вс
вс1800:00+8ю2495100 3.0 1019391
03:00+7вюв139593 3.8 1019176
06:00+7юв2494100 0.6 1019235
09:00+7ююз3786100 0.8 1020633
12:00+11юв1265100 0.3 10201059
15:00+12всв345897 1.4 10201505
18:00+9всв138799 1.4 1021142
21:00+8всв41085100 1.8 1022471
19 апреля, пн
пн1900:00+6св3891100 0.0 1022299
03:00+6св3892100 0.0 1022377
06:00+6всв389084 0.4 1022428
09:00+9всв467365 0.6 1022856
12:00+10всв6769100 0.0 10231165
15:00+8в51079100 0.1 10231173
18:00+6в51183100 0.0 1024707
21:00+5в3118692 0.0 1024657